Regional Weather Roundup
Issued by NWS Albany, NY

Home | Current Version | Previous Version | Text Only | Print | Product List | Glossary On
Versions: 1 2 3 4 5 6 7 8 9 10 11 12 13 14 15 16 17 18 19 20 21 22 23 24 25 26 27 28 29 30 31 32 33 34 35 36 37 38 39 40 41 42 43 44 45 46 47 48 49 50
000
ASUS41 KALY 012010
RWRALY

NEW YORK STATE HOURLY WEATHER ROUNDUP
NATIONAL WEATHER SERVICE ALBANY NY
400 PM EDT MON JUN 01 2015

NOTE: "FAIR" INDICATES FEW OR NO CLOUDS BELOW 12,000 FEET WITH NO
SIGNIFICANT WEATHER AND/OR NO OBSTRUCTIONS TO VISIBILITY.

NYZ032-033-038>043-046>054-057>066-NYZ062>081-012100-
EAST


CITY           SKY/WX    TMP DP  RH WIND       PRES   REMARKS
ALBANY         DRIZZLE   54  51  90 CALM      30.17S FOG
GLENS FALLS    CLOUDY    52  48  86 N9        30.19F
POUGHKEEPSIE   CLOUDY    55  51  86 NE7       30.12F
NEWBURGH       LGT RAIN  54  52  94 E14       30.14S
MONTGOMERY     CLOUDY    55  53  93 NE7       30.12S
WHITE PLAINS   DRIZZLE   54  52  93 E9        30.12R FOG
ISLIP          DRZL/FOG  55  53  93 NE13      30.10F VSB 1
NEW YORK CITY  DRIZZLE   55  53  93 NE18      30.11S FOG
CENTRAL PARK   CLOUDY    56  52  86 E13G22    30.14R FOG
$$

NYZ005>009-017-018-044>046-055-056-012100-
CENTRAL


CITY           SKY/WX    TMP DP  RH WIND       PRES   REMARKS
FULTON         LGT RAIN  56  52  86 VRB3      30.13S FOG
SYRACUSE       DRIZZLE   55  54  96 NE7       30.11F FOG
ROME           LGT RAIN  53  51  93 E9        30.15S FOG
ELMIRA         CLOUDY    57  53  86 N8        30.10S
BINGHAMTON     CLOUDY    53  53 100 NW8       30.09S FOG
MONTICELLO     CLOUDY    52  52 100 E10       30.12F
$$

NYZ026>034-041>043-012100-
NORTH


CITY           SKY/WX    TMP DP  RH WIND       PRES   REMARKS
WATERTOWN      CLOUDY    57  53  86 NE12      30.14F
FORT DRUM      NOT AVBL
MASSENA        CLOUDY    56  47  71 NE16G23   30.23S
SARANAC LAKE   RAIN      49  47  93 E12       30.17F FOG
PLATTSBURGH    LGT RAIN  53  51  93 NE6       30.24F
$$

NYZ001>004-010>016-019>021-012100-
WEST


CITY           SKY/WX    TMP DP  RH WIND       PRES   REMARKS
NIAGARA FALLS  CLOUDY    55  49  80 NE9       30.17F
BUFFALO        DRIZZLE   54  49  83 NE9       30.17F
DUNKIRK        CLOUDY    53  49  86 N8        30.18S
JAMESTOWN      CLOUDY    48  45  87 N7        30.17S
WELLSVILLE     CLOUDY    51  48  89 VRB5      30.14S FOG
ROCHESTER      LGT RAIN  52  50  93 NE15      30.17S FOG
PENN YAN       CLOUDY    56  50  80 NW6       30.13S
$$

             KEY
       WCI = WIND CHILL INDEX
       VSB = VISIBILITY
       HX  = HEAT INDEX
$$



USA.gov is the U.S. government's official web portal to all federal, state and local government web resources and services.